Location: Elizabeth Ann Machol Dragonfly Observatory
(32.8132°N, 108.2740°W)
Time: 13:23:35
(UTC-06:00)

Envisat - Visible Passes

Search period start: 18 March 2019 00:00
Search period end: 28 March 2019 00:00
Orbit: 764 x 766 km, 98.2° (Epoch: 18 March)

Date Brightness Start Highest point End Pass type
(mag) Time Alt. Az. Time Alt. Az. Time Alt. Az.
18 Mar 3.3 20:05:25 10° S 20:10:27 73° WSW 20:15:32 10° NNW visible
19 Mar 5.9 21:09:58 10° SW 21:12:59 16° W 21:16:01 10° WNW visible
20 Mar 4.5 20:31:20 10° SSW 20:36:01 38° W 20:40:45 10° NNW visible
21 Mar 3.0 19:54:11 10° SSE 19:59:15 86° ENE 20:04:21 10° N visible
22 Mar 5.6 20:57:57 10° SW 21:01:42 21° W 21:05:27 10° NW visible
23 Mar 4.0 20:19:53 10° S 20:24:47 50° W 20:29:43 10° NNW visible
24 Mar 3.0 19:43:03 10° SSE 19:48:03 67° ENE 19:53:05 10° N visible
24 Mar 6.2 21:26:32 10° WSW 21:27:26 10° W 21:28:21 10° W visible
25 Mar 5.2 20:46:11 10° SSW 20:50:24 27° W 20:54:40 10° NW visible
26 Mar 3.5 20:08:32 10° S 20:13:33 66° W 20:18:36 10° NNW visible
27 Mar 5.9 21:13:29 10° SW 21:16:07 14° W 21:18:46 10° WNW visible
